This is the latest recevied weather packets stored in our database for station/object NK7I. If no packets are shown the sender has not sent any weather packets the latest 1 day(s).
| Time | Temp. | Humidity | Pressure | Rain* | Wind** | Luminosity | Snow |
|---|---|---|---|---|---|---|---|
| 1778012183 | 20.56° C | 41% | 1012.7 hPa | 0 mm | 0.89 m/s, 6° | 1266 W/m² | - |
| 1778011883 | 20.56° C | 32% | 1012.7 hPa | 0 mm | 0.89 m/s, 269° | 1274 W/m² | - |
| 1778011583 | 20° C | 33% | 1013 hPa | 0 mm | 1.79 m/s, 52° | 1276 W/m² | - |
| 1778011283 | 20.56° C | 33% | 1012.8 hPa | 0 mm | 1.34 m/s, 49° | 1278 W/m² | - |
| 1778010984 | 20.56° C | 34% | 1012.7 hPa | 0 mm | 1.34 m/s, 48° | 1283 W/m² | - |
| 1778010683 | 20.56° C | 36% | 1012.8 hPa | 0 mm | 1.34 m/s, 52° | 1288 W/m² | - |
| 1778010383 | 21.11° C | 34% | 1012.8 hPa | 0 mm | 0.89 m/s, 60° | 1287 W/m² | - |
| 1778010083 | 21.11° C | 35% | 1012.8 hPa | 0 mm | 0.89 m/s, 35° | 1288 W/m² | - |
| 1778009783 | 21.11° C | 37% | 1012.8 hPa | 0 mm | 0.45 m/s, 357° | 1288 W/m² | - |
| 1778009483 | 20.56° C | 35% | 1012.8 hPa | 0 mm | 1.34 m/s, 324° | 1287 W/m² | - |
| 1778009183 | 20.56° C | 36% | 1012.8 hPa | 0 mm | 0.89 m/s, 283° | 1285 W/m² | - |
| 1778008883 | 20.56° C | 32% | 1012.8 hPa | 0 mm | 0.89 m/s, 272° | 1285 W/m² | - |
| 1778008583 | 20° C | 36% | 1013 hPa | 0 mm | 0.89 m/s, 356° | 1280 W/m² | - |
| 1778008283 | 20.56° C | 34% | 1013 hPa | 0 mm | 0.89 m/s, 342° | 1276 W/m² | - |
| 1778007983 | 20° C | 36% | 1013.2 hPa | 0 mm | 0.45 m/s, 322° | 1273 W/m² | - |
| 1778007683 | 20° C | 35% | 1013.2 hPa | 0 mm | 1.34 m/s, 299° | 1269 W/m² | - |
| 1778007383 | 20° C | 37% | 1013.3 hPa | 0 mm | 0.89 m/s, 0° | 1266 W/m² | - |
| 1778007083 | 19.44° C | 33% | 1013.3 hPa | 0 mm | 0.89 m/s, 22° | 1260 W/m² | - |
| 1778006783 | 19.44° C | 40% | 1013.3 hPa | 0 mm | 0.45 m/s, 315° | 1255 W/m² | - |
| 1778006483 | 19.44° C | 36% | 1013.3 hPa | 0 mm | 0.45 m/s, 305° | 1246 W/m² | - |
| 1778006183 | 19.44° C | 35% | 1013.3 hPa | 0 mm | 1.34 m/s, 315° | 1241 W/m² | - |
| 1778005883 | 18.89° C | 42% | 1013.4 hPa | 0 mm | 1.34 m/s, 31° | 1239 W/m² | - |
| 1778005583 | 18.89° C | 36% | 1013.5 hPa | 0 mm | 0.89 m/s, 25° | 1229 W/m² | - |
| 1778005283 | 18.89° C | 38% | 1013.5 hPa | 0 mm | 0.89 m/s, 21° | 1222 W/m² | - |
| 1778004983 | 18.89° C | 34% | 1013.5 hPa | 0 mm | 1.34 m/s, 9° | 1211 W/m² | - |
* Rain latest hour (hover to see other rain measurements)
** Current wind speed in m/s (hover to see current wind gust speed)